Regional Weather Roundup
Issued by NWS Little Rock, AR

Home | Current Version | Previous Version | Graphics & Text | Print | Product List | Glossary On
Versions: 1 2 3 4 5 6 7 8 9 10 11 12 13 14 15 16 17 18 19 20 21 22 23 24 25 26 27 28 29 30 31 32 33 34 35 36 37 38 39 40 41 42 43 44 45 46 47 48 49 50
000
ASUS44 KLZK 191405
RWRLZK

WEATHER ROUNDUP FOR ARKANSAS
NATIONAL WEATHER SERVICE LITTLE ROCK AR
800 AM CST MON FEB 19 2018

NOTE: "FAIR" INDICATES FEW OR NO CLOUDS BELOW 12,000 FEET WITH NO
SIGNIFICANT WEATHER AND/OR OBSTRUCTIONS TO VISIBILITY.

ARZ001-003-010-029-191500-
NORTHWEST ARKANSAS

CITY           SKY/WX    TMP DP  RH WIND       PRES   REMARKS
FAYETTEVILLE   CLOUDY    60  57  89 S13       29.88S
FORT SMITH     CLOUDY    60  56  86 SE5       29.89F
HARRISON       CLOUDY    60  55  83 S16G24    29.90R
BENTONVILLE    CLOUDY    61  57  87 S14G25    29.87S
ROGERS         CLOUDY    62  57  83 S21G30    29.87R
SILOAM SPGS    CLOUDY    62  58  86 S23G29    29.85S
HIGHFILL       CLOUDY    61  58  90 S22G29    29.85S
SPRINGDALE     CLOUDY    63  59  88 S18G29    29.88S
$$

ARZ004-005-016-191500-
NORTH CENTRAL ARKANSAS

CITY           SKY/WX    TMP DP  RH WIND       PRES   REMARKS
BATESVILLE     CLOUDY    62  59  90 S9G18     30.02R
FLIPPIN        PTSUNNY   61  56  83 S6        29.93R
MTN HOME       CLOUDY    59  56  89 S10       29.92R
$$

ARZ040-041-191500-
WEST CENTRAL ARKANSAS

CITY           SKY/WX    TMP DP  RH WIND       PRES   REMARKS
MENA           CLOUDY    64  63  94 S13G24    29.96S
MOUNT IDA      PTSUNNY   65  60  84 VRB6G28   29.96R
$$

ARZ009-017-025-026-028-191500-
NORTHEAST ARKANSAS

CITY           SKY/WX    TMP DP  RH WIND       PRES   REMARKS
JONESBORO      CLOUDY    62  61  96 S15       30.05R
NEWPORT          N/A     58  58 100 S14       30.04R
WALNUT RIDGE   CLOUDY    59  58  96 S18       30.01S
BLYTHEVILLE    CLOUDY    63  60  90 S17       30.07R
$$

ARZ022-023-033-042-044-191500-
CENTRAL ARKANSAS

CITY           SKY/WX    TMP DP  RH WIND       PRES   REMARKS
LITTLE ROCK    CLOUDY    63  62  97 S13       30.02R
N LITTLE ROCK    N/A     62  60  96 S9        30.01R
JACKSONVILLE   CLOUDY    62  62 100 S6        30.02R
SEARCY         CLOUDY    61  32  33 MISG        N/A
HOT SPRINGS    CLOUDY    64  61  90 S8G17     30.02R
RUSSELLVILLE   CLOUDY    57  57 100 SE7       29.97S
CLINTON        CLOUDY    54  54 100 CALM      30.00S FOG
$$

ARZ036-191500-
EAST ARKANSAS

CITY           SKY/WX    TMP DP  RH WIND       PRES   REMARKS
WEST MEMPHIS   CLOUDY    63  62  97 S15       30.08R
$$

ARZ050-053-066-070-073-191500-
SOUTHWEST ARKANSAS

CITY           SKY/WX    TMP DP  RH WIND       PRES   REMARKS
ARKADELPHIA    CLOUDY    58  58 100 S3        30.03R
CAMDEN         FAIR      64  61  88 S9G15     30.03R
TEXARKANA      CLOUDY    64  61  90 S12       30.01R
EL DORADO      CLOUDY    64  64 100 SE12      30.05R
DE QUEEN       CLOUDY    63  62  97 SE8       29.95F FOG
$$

ARZ056-057-069-191500-
SOUTHEAST ARKANSAS

CITY           SKY/WX    TMP DP  RH WIND       PRES   REMARKS
PINE BLUFF     PTSUNNY   65  61  87 S21G33    30.04S
STUTTGART      CLOUDY    64  61  90 S18       30.05R
MONTICELLO     CLOUDY    65  62  90 S9        30.08R

$$





USA.gov is the U.S. government's official web portal to all federal, state and local government web resources and services.